AirNav   Everest Fuels
 
 1618 users online  

9B8 Salmon River Airfield
Marlborough, Connecticut, USA

GOING TO MARLBOROUGH?


FAA INFORMATION EFFECTIVE 06 OCTOBER 2022

Location

FAA Identifier: 9B8
Lat/Long: 41-35-22.3560N 072-26-32.3080W
41-35.372600N 072-26.538467W
41.5895433,-72.4423078
(estimated)
Elevation: 540 ft. / 165 m (estimated)
Variation: 14W (1985)
From city: 3 miles S of MARLBOROUGH, CT
Time zone: UTC -4 (UTC -5 during Standard Time)
Zip code: 06447

Airport Operations

Airport use: Open to the public
Activation date: 04/1962
Control tower: no
ARTCC: BOSTON CENTER
FSS: BRIDGEPORT FLIGHT SERVICE STATION
NOTAMs facility: BDR (NOTAM-D service available)
Attendance: IREG
ARPT CLSD SS-SR.
Wind indicator: yes
Segmented circle: no

Airport Communications

CTAF: 122.9
WX AWOS-3 at SNC (13 nm S): 118.325 (860-526-1551)
WX ASOS at HFD (13 nm NW): PHONE 860-527-5837
WX ASOS at IJD (15 nm NE): 133.675 (860-456-8839)
WX AWOS-AV at CT71 (18 nm NW): 129.825
WX ASOS at MMK (18 nm W): 134.925 (203-639-9405)

Nearby radio navigation aids

VOR radial/distance  VOR name  Freq  Var
HFDr136/5.6HARTFORD VOR/DME114.9013W
ORWr290/20.0NORWICH VOR/DME110.0014W
MADr047/20.0MADISON VOR/DME110.4013W
GONr326/23.4GROTON VOR/DME110.8514W
PUTr245/34.6PUTNAM VOR/DME117.4014W
BAFr174/36.5BARNES VORTAC113.0014W

Airport Services

Parking: tiedowns
Airframe service: NONE
Powerplant service: NONE

Runway Information

Runway 17/35

Dimensions: 2000 x 60 ft. / 610 x 18 m
Surface: turf, in good condition
RUNWAY 17  RUNWAY 35
Traffic pattern: rightleft
Obstructions: 46 ft. trees, 486 ft. from runway, 250 ft. left of centerline, 10:1 slope to clear68 ft. trees, 834 ft. from runway, 209 ft. right of centerline, 12:1 slope to clear

Airport Ownership and Management from official FAA records

Ownership: Privately-owned
Owner: SALMON RIVER AIRFIELD ASSOC
44 BULLHILL RD
COLCHESTER, CT 06415
Phone 860-267-6562
Manager: MARK DITOMASSO
141 OGDEN ROAD
COLCHESTER, CT 06415
Phone (860) 883-4272

Airport Operational Statistics

Aircraft based on the field: 9
Single engine airplanes: 7
Helicopters: 2
    
Aircraft operations: avg 67/month *
62% local general aviation
38% transient general aviation
* for 12-month period ending 31 August 2014

Additional Remarks

ARPT CLSD DEC 15 - APR 30.
PAE INVOF RY'S AND TWYS.
ALL SURFACES , RY & TWY, WORK IN PROGRESS, MAINTENANCE.
FOR CD CTC YANKEE APCH AT 860-386-3597

Instrument Procedures

There are no published instrument procedures at 9B8.

Some nearby airports with instrument procedures:

KSNC - Chester Airport (13 nm S)
KHFD - Hartford-Brainard Airport (13 nm NW)
KIJD - Windham Airport (15 nm NE)
KMMK - Meriden Markham Municipal Airport (18 nm W)
4B8 - Robertson Field Airport (20 nm W)
 
Loc | Ops | Rwys | IFR | FBO | Links
Com | Nav | Svcs | Stats | Notes

Silver City Flying Club
 
Area around 9B8 (Salmon River Airfield)
 
Road maps at: MapQuest Bing Google
 
Aerial photo
WARNING: Photo may not be current or correct
Aerial photo of 9B8 (Salmon River Airfield)
Photo taken 18-Sep-2005

Do you have a better or more recent aerial photo of Salmon River Airfield that you would like to share? If so, please send us your photo.

 
Sectional chart

 
Airport distance calculator
Flying to Salmon River Airfield? Find the distance to fly.

From to 9B8

Sunrise and sunset
Times for 07-Oct-2022
 Local
(UTC-4)
 Zulu
(UTC)
Morning civil twilight06:2610:26
Sunrise06:5410:54
Sunset18:2122:21
Evening civil twilight18:4922:49

Current date and time
Zulu (UTC)  07-Oct-2022 17:23:50
Local (UTC-4)  07-Oct-2022 13:23:50
 
METAR
KSNC 
13nm S 
071655Z AUTO VRB06G13KT 10SM CLR 23/13 A2993 RMK AO2
KHFD 
13nm NW 
071653Z 21004KT 10SM FEW044 24/13 A2991 RMK AO2 SLP127 T02390133
KIJD 
15nm NE 
071652Z AUTO 22008KT 10SM CLR 23/14 A2991 RMK AO2 SLP127 T02330139
KMMK 
18nm W 
071653Z AUTO VRB03KT 10SM CLR 24/11 A2992 RMK AO2 SLP129 T02390106
KBDL 
23nm NW 
071651Z 19006KT 10SM FEW040 24/13 A2991 RMK AO2 SLP127 T02390133
KGON 
23nm SE 
071656Z 23009KT 10SM CLR 21/16 A2992 RMK AO2 SLP131 T02110156
TAF
KBDL 
23nm NW 
071444Z 0715/0818 21004KT P6SM FEW080 FM071700 24010KT P6SM SCT060 FM072100 30010G19KT P6SM BKN060 FM080400 32006KT P6SM SCT250
KGON 
23nm SE 
071431Z 0715/0812 21010KT P6SM FEW150 SCT250 FM080000 32008KT P6SM BKN080 PROB30 0809/0812 -RA
NOTAMs
Click for the latest NOTAMs
NOTAMs are issued by the DoD/FAA and will open in a separate window not controlled by AirNav.

 

 
 

Would you like to see your business listed on this page?

 If your business provides an interesting product or service to pilots, flight crews, aircraft, or users of the Salmon River Airfield, you should consider listing it here.  To start the listing process, click on the button below
 
Add a business
 

Other Pages about Salmon River Airfield

Update a link
 
Copyright © AirNav, LLC. All rights reserved. Privacy Policy  Contact